Regional Weather Roundup
Issued by NWS

Home | Current Version | Previous Version | Graphics & Text | Print | Product List | Glossary On
Versions: 1 2 3 4 5 6 7 8 9 10 11 12 13 14 15 16 17 18 19 20 21 22 23 24 25 26 27 28 29 30 31 32 33 34 35 36 37 38 39 40 41 42 43 44 45 46 47 48 49 50
981
ASUS43 KLSX 190407
RWRMO

WEATHER SUMMARY FOR MISSOURI
NATIONAL WEATHER SERVICE SPRINGFIELD MO
1100 PM CDT WED APR 18 2018

NOTE: "FAIR" INDICATES FEW OR NO CLOUDS BELOW 12,000 FEET WITH NO
       SIGNIFICANT WEATHER AND/OR OBSTRUCTIONS TO VISIBILITY.
       CURRENT SKY AND/OR WEATHER CONDITIONS ARE NOT AVAILABLE FOR
       CHILLICOTHE AND FARMINGTON.

MOZ001>031-035>038-043-044-053-054-190500-
...NORTHERN AND WESTERN MISSOURI...

CITY           SKY/WX    TMP DP  RH WIND       PRES   REMARKS
KANSAS CTY INT CLOUDY    38  26  62 NW8       30.22R
KANSAS C DTWN  CLOUDY    40  26  57 NW9       30.23R
LEE`S SUMMIT   PTCLDY    39  25  57 NW9       30.22R
ST JOSEPH      CLOUDY    38  30  73 NW6       30.22S
CHILLICOTHE      N/A     38  26  62 VRB5      30.20R
KIRKSVILLE     CLOUDY    35  28  75 NW10      30.15R WCI  27

$$
MOZ066>068-077>081-088>096-101>105-190500-
...SOUTHWEST MISSOURI...

CITY           SKY/WX    TMP DP  RH WIND       PRES   REMARKS
SPRINGFIELD    CLEAR     41  29  62 NW6       30.16S
JOPLIN         CLEAR     43  30  60 NW10      30.22R
BRANSON        CLEAR     45  28  53 NW8       30.18R

$$
MOZ032>034-039>042-045>050-055>058-069>072-190500-
...CENTRAL MISSOURI...

CITY           SKY/WX    TMP DP  RH WIND       PRES   REMARKS
COLUMBIA       CLOUDY    40  27  59 NW18      30.14R
JEFFERSON CITY CLOUDY    42  28  57 NW18G29   30.16R
ROLLA          CLOUDY    41  28  60 W17G25    30.12S
SEDALIA        CLOUDY    40  27  59 NW18G29   30.20
WHITEMAN AFB   PTCLDY    39  24  56 N13       30.16R
WARRENSBURG    CLEAR     37  27  65 NW6       30.21S
OSAGE BEACH    CLOUDY    43  28  55 NW10G16   30.16S

$$
MOZ051-052-059>065-190500-
...EAST CENTRAL MISSOURI...

CITY           SKY/WX    TMP DP  RH WIND       PRES   REMARKS
ST LOUIS INTL  CLOUDY    41  25  53 NW18G29   30.09R
SPIRIT OF STL  CLOUDY    42  27  55 NW13G23   30.11R
ST CHARLES     CLOUDY    40  26  57 NW15G24   30.10R

$$
MOZ072>076-082>087-097>100-106>115-190500-
...SOUTH CENTRAL AND SOUTHEAST MISSOURI...

CITY           SKY/WX    TMP DP  RH WIND       PRES   REMARKS
CAPE GIRARDEAU FAIR      50  34  54 NW21      30.05R
FARMINGTON     CLOUDY    42  27  55 NW12G25   30.09R
POPLAR BLUFF   FAIR      51  32  48 NW23G37   30.07R
WEST PLAINS    CLEAR     43  27  53 NW10G22   30.14R

$$




USA.gov is the U.S. government's official web portal to all federal, state and local government web resources and services.